AVA8448 SKCL-SKRG

Flight info

Callsign AVA8448
Flight time 0h 32m
Altitude 23000
Route ULQ1K ULQ W3 ISVON ISVON4A
Aircraft A320/M-SDE3FGHIRWY/LB1

Departure

Time 2026-05-05 22:58
Airport Alfonso Bonilla Aragon International Airport (SKCL)

Arrival

Time 2026-05-05 23:30
Airport Jose Maria Córdova International Airport (SKRG)
Time Latitude Longitude Altitude Speed Heading
2026-05-05 22:30 3.53831 -76.38703 3162 ft 0 kts 266°
2026-05-05 22:49 3.53832 -76.38691 3162 ft 3 kts 262°
2026-05-05 22:50 3.53837 -76.38667 3163 ft 3 kts 248°
2026-05-05 22:50 3.53848 -76.38646 3162 ft 3 kts 231°
2026-05-05 22:50 3.53865 -76.38629 3162 ft 3 kts 212°
2026-05-05 22:50 3.53887 -76.38619 3163 ft 3 kts 195°
2026-05-05 22:51 3.53911 -76.38614 3163 ft 3 kts 185°
2026-05-05 22:51 3.53932 -76.38612 3163 ft 1 kts 189°
2026-05-05 22:53 3.53930 -76.38613 3163 ft 2 kts 189°
2026-05-05 22:53 3.53906 -76.38617 3163 ft 6 kts 189°
2026-05-05 22:54 3.53844 -76.38621 3162 ft 11 kts 168°
2026-05-05 22:54 3.53789 -76.38583 3162 ft 9 kts 144°
2026-05-05 22:54 3.53742 -76.38549 3163 ft 8 kts 144°
2026-05-05 22:54 3.53705 -76.38522 3162 ft 6 kts 144°
2026-05-05 22:55 3.53676 -76.38501 3163 ft 5 kts 144°
2026-05-05 22:55 3.53610 -76.38458 3163 ft 15 kts 158°
2026-05-05 22:55 3.53499 -76.38473 3162 ft 17 kts 191°
2026-05-05 22:55 3.53378 -76.38495 3162 ft 19 kts 190°
2026-05-05 22:56 3.53244 -76.38519 3162 ft 20 kts 190°
2026-05-05 22:56 3.53100 -76.38544 3162 ft 22 kts 189°
2026-05-05 22:56 3.52997 -76.38532 3163 ft 11 kts 111°
2026-05-05 22:56 3.52986 -76.38450 3161 ft 12 kts 84°
2026-05-05 22:57 3.53040 -76.38389 3160 ft 12 kts 15°
2026-05-05 22:57 3.53135 -76.38371 3160 ft 24 kts
2026-05-05 22:57 3.53569 -76.38297 3162 ft 98 kts
2026-05-05 22:57 3.54107 -76.38205 3166 ft 137 kts
2026-05-05 22:58 3.55218 -76.38009 3257 ft 178 kts 11°
2026-05-05 22:58 3.56461 -76.37781 3902 ft 183 kts 11°
2026-05-05 22:58 3.58150 -76.37485 4864 ft 187 kts 10°
2026-05-05 22:58 3.59026 -76.37337 5201 ft 194 kts 10°
2026-05-05 22:59 3.60411 -76.37101 5432 ft 215 kts
2026-05-05 22:59 3.61941 -76.36838 5834 ft 227 kts
2026-05-05 22:59 3.63517 -76.36566 6409 ft 232 kts 10°
2026-05-05 22:59 3.65114 -76.36168 6838 ft 246 kts 15°
2026-05-05 23:00 3.68710 -76.35051 7559 ft 291 kts 18°
2026-05-05 23:00 3.70664 -76.34419 8279 ft 298 kts 18°
2026-05-05 23:00 3.72656 -76.33776 9041 ft 303 kts 18°
2026-05-05 23:01 3.74682 -76.33132 9783 ft 308 kts 18°
2026-05-05 23:01 3.76732 -76.32486 10588 ft 310 kts 17°
2026-05-05 23:01 3.78792 -76.31842 11408 ft 311 kts 17°
2026-05-05 23:01 3.80865 -76.31198 12236 ft 312 kts 17°
2026-05-05 23:02 3.82915 -76.30563 13041 ft 313 kts 17°
2026-05-05 23:02 3.85042 -76.29899 13424 ft 330 kts 18°
2026-05-05 23:02 3.87306 -76.29188 13707 ft 348 kts 18°
2026-05-05 23:02 3.89639 -76.28456 14317 ft 353 kts 18°
2026-05-05 23:03 3.92000 -76.27719 14967 ft 357 kts 18°
2026-05-05 23:03 3.94382 -76.26975 15625 ft 360 kts 18°
2026-05-05 23:03 3.96748 -76.26233 16276 ft 362 kts 18°
2026-05-05 23:03 3.99159 -76.25478 16895 ft 365 kts 19°
2026-05-05 23:04 4.01600 -76.24715 17517 ft 367 kts 19°
2026-05-05 23:04 4.04051 -76.23950 18124 ft 370 kts 19°
2026-05-05 23:04 4.06520 -76.23181 18712 ft 373 kts 19°
2026-05-05 23:04 4.08988 -76.22355 19271 ft 375 kts 24°
2026-05-05 23:05 4.11311 -76.21155 19799 ft 377 kts 31°
2026-05-05 23:05 4.13598 -76.19853 20317 ft 380 kts 31°
2026-05-05 23:05 4.15914 -76.18541 20829 ft 384 kts 31°
2026-05-05 23:05 4.18249 -76.17221 21326 ft 387 kts 31°
2026-05-05 23:06 4.20599 -76.15888 21806 ft 390 kts 31°
2026-05-05 23:06 4.22942 -76.14559 22274 ft 393 kts 31°
2026-05-05 23:06 4.25331 -76.13204 22742 ft 396 kts 31°
2026-05-05 23:06 4.27749 -76.11834 22940 ft 398 kts 31°
2026-05-05 23:07 4.30124 -76.10498 22970 ft 384 kts 30°
2026-05-05 23:07 4.32424 -76.09213 22970 ft 375 kts 30°
2026-05-05 23:07 4.34699 -76.07946 22969 ft 373 kts 30°
2026-05-05 23:07 4.36971 -76.06680 22979 ft 372 kts 30°
2026-05-05 23:08 4.39230 -76.05416 22980 ft 372 kts 31°
2026-05-05 23:08 4.41459 -76.04162 22979 ft 372 kts 31°
2026-05-05 23:08 4.43719 -76.02888 22986 ft 372 kts 31°
2026-05-05 23:08 4.45971 -76.01617 22989 ft 372 kts 31°
2026-05-05 23:09 4.48233 -76.00346 22989 ft 372 kts 30°
2026-05-05 23:09 4.50500 -75.99079 22966 ft 372 kts 30°
2026-05-05 23:09 4.52760 -75.97820 22958 ft 371 kts 30°
2026-05-05 23:09 4.55017 -75.96561 22957 ft 371 kts 30°
2026-05-05 23:10 4.57271 -75.95301 22957 ft 371 kts 30°
2026-05-05 23:10 4.59528 -75.94037 22963 ft 371 kts 30°
2026-05-05 23:10 4.61781 -75.92774 22959 ft 371 kts 30°
2026-05-05 23:10 4.64038 -75.91512 22959 ft 371 kts 30°
2026-05-05 23:11 4.66294 -75.90252 22960 ft 372 kts 30°
2026-05-05 23:11 4.68556 -75.88990 22953 ft 372 kts 30°
2026-05-05 23:11 4.70796 -75.87742 22960 ft 372 kts 30°
2026-05-05 23:11 4.73058 -75.86478 22957 ft 372 kts 30°
2026-05-05 23:12 4.75326 -75.85209 22963 ft 372 kts 30°
2026-05-05 23:12 4.77598 -75.83950 22959 ft 373 kts 28°
2026-05-05 23:12 4.79997 -75.82965 22962 ft 374 kts 21°
2026-05-05 23:12 4.82441 -75.82104 22966 ft 372 kts 20°
2026-05-05 23:13 4.84891 -75.81249 22974 ft 373 kts 20°
2026-05-05 23:13 4.87325 -75.80405 22995 ft 374 kts 20°
2026-05-05 23:13 4.89788 -75.79550 22999 ft 374 kts 20°
2026-05-05 23:13 4.92251 -75.78693 23002 ft 374 kts 20°
2026-05-05 23:14 4.94710 -75.77833 23007 ft 374 kts 20°
2026-05-05 23:14 4.97174 -75.76972 23012 ft 374 kts 20°
2026-05-05 23:14 4.99637 -75.76112 23033 ft 374 kts 20°
2026-05-05 23:14 5.02102 -75.75251 23028 ft 374 kts 20°
2026-05-05 23:15 5.04534 -75.74403 23035 ft 375 kts 20°
2026-05-05 23:15 5.06996 -75.73543 23039 ft 375 kts 20°
2026-05-05 23:15 5.09469 -75.72679 23019 ft 375 kts 20°
2026-05-05 23:15 5.11941 -75.71815 23014 ft 375 kts 20°
2026-05-05 23:16 5.14407 -75.70953 23084 ft 375 kts 20°
2026-05-05 23:16 5.16876 -75.70091 23141 ft 376 kts 20°
2026-05-05 23:16 5.19353 -75.69230 23153 ft 377 kts 20°
2026-05-05 23:16 5.21804 -75.68379 23157 ft 377 kts 20°
2026-05-05 23:17 5.24284 -75.67516 23164 ft 377 kts 20°
2026-05-05 23:17 5.26764 -75.66651 23180 ft 377 kts 20°
2026-05-05 23:17 5.29232 -75.65789 23077 ft 373 kts 20°
2026-05-05 23:17 5.31677 -75.64936 22603 ft 371 kts 20°
2026-05-05 23:18 5.34115 -75.64087 22141 ft 368 kts 20°
2026-05-05 23:18 5.36495 -75.63260 21688 ft 366 kts 20°
2026-05-05 23:18 5.38891 -75.62428 21218 ft 363 kts 20°
2026-05-05 23:18 5.41221 -75.61478 20751 ft 360 kts 29°
2026-05-05 23:19 5.43441 -75.60306 20281 ft 359 kts 29°
2026-05-05 23:19 5.45645 -75.59136 19827 ft 356 kts 30°
2026-05-05 23:19 5.47805 -75.57987 19376 ft 355 kts 30°
2026-05-05 23:19 5.49977 -75.56832 18932 ft 347 kts 30°
2026-05-05 23:20 5.52070 -75.55723 18517 ft 333 kts 30°
2026-05-05 23:20 5.54092 -75.54652 18105 ft 327 kts 30°
2026-05-05 23:20 5.56128 -75.53573 17443 ft 334 kts 30°
2026-05-05 23:20 5.58185 -75.52485 17084 ft 331 kts 30°
2026-05-05 23:21 5.60192 -75.51423 16606 ft 322 kts 30°
2026-05-05 23:21 5.62147 -75.50388 16194 ft 315 kts 30°
2026-05-05 23:21 5.64063 -75.49373 15805 ft 315 kts 30°
2026-05-05 23:21 5.66006 -75.48341 15426 ft 315 kts 30°
2026-05-05 23:22 5.67943 -75.47314 15046 ft 315 kts 30°
2026-05-05 23:22 5.69885 -75.46287 14665 ft 315 kts 30°
2026-05-05 23:22 5.71823 -75.45260 14274 ft 315 kts 30°
2026-05-05 23:22 5.73740 -75.44245 14118 ft 306 kts 30°
2026-05-05 23:23 5.75588 -75.43263 13997 ft 297 kts 30°
2026-05-05 23:23 5.77459 -75.42452 13866 ft 291 kts 16°
2026-05-05 23:23 5.79442 -75.42208 13740 ft 284 kts
2026-05-05 23:23 5.81378 -75.42215 13490 ft 277 kts
2026-05-05 23:24 5.83303 -75.42231 12957 ft 277 kts
2026-05-05 23:24 5.85254 -75.42239 12336 ft 282 kts
2026-05-05 23:24 5.87167 -75.42239 12117 ft 268 kts
2026-05-05 23:24 5.89010 -75.42231 11821 ft 261 kts
2026-05-05 23:25 5.90812 -75.42231 11488 ft 258 kts
2026-05-05 23:25 5.92606 -75.42233 11153 ft 258 kts
2026-05-05 23:25 5.94379 -75.42229 10841 ft 249 kts
2026-05-05 23:25 5.96063 -75.42193 10611 ft 236 kts
2026-05-05 23:26 5.97645 -75.42190 10347 ft 224 kts
2026-05-05 23:26 5.99176 -75.42204 10028 ft 215 kts
2026-05-05 23:26 6.00642 -75.42212 9756 ft 206 kts
2026-05-05 23:26 6.02061 -75.42219 9483 ft 202 kts
2026-05-05 23:27 6.03447 -75.42227 9215 ft 194 kts 360°
2026-05-05 23:27 6.04750 -75.42235 8964 ft 181 kts 360°
2026-05-05 23:27 6.05956 -75.42244 8753 ft 168 kts
2026-05-05 23:27 6.07102 -75.42252 8522 ft 163 kts
2026-05-05 23:28 6.08230 -75.42259 8304 ft 161 kts
2026-05-05 23:28 6.09345 -75.42266 8092 ft 160 kts
2026-05-05 23:28 6.10453 -75.42273 7880 ft 159 kts
2026-05-05 23:28 6.11558 -75.42280 7669 ft 158 kts
2026-05-05 23:29 6.12644 -75.42287 7462 ft 157 kts
2026-05-05 23:29 6.13739 -75.42297 7245 ft 157 kts
2026-05-05 23:29 6.14827 -75.42302 7056 ft 156 kts
2026-05-05 23:29 6.15867 -75.42307 6980 ft 128 kts 360°
2026-05-05 23:30 6.16458 -75.42313 6989 ft 53 kts 360°
2026-05-05 23:30 6.16789 -75.42315 7011 ft 43 kts 359°
2026-05-05 23:30 6.16994 -75.42352 7019 ft 27 kts 337°
2026-05-05 23:30 6.17145 -75.42433 7019 ft 16 kts 327°
2026-05-05 23:31 6.17192 -75.42504 7017 ft 13 kts 276°
2026-05-05 23:31 6.17186 -75.42593 7019 ft 14 kts 254°
2026-05-05 23:31 6.17101 -75.42617 7016 ft 14 kts 185°
2026-05-05 23:31 6.17027 -75.42662 7021 ft 10 kts 218°
2026-05-05 23:32 6.17019 -75.42685 7016 ft 3 kts 282°
2026-05-05 23:32 6.17034 -75.42705 7017 ft 5 kts 308°
2026-05-05 23:32 6.17039 -75.42712 7016 ft 0 kts 307°